[[{"header":{"parameterUnit":"m.s-1","parameterCategory":1,"la1":30.2992,"la2":30.254,"lo1":-89.0895,"lo2":-89.0443,"dy":0.0025,"dx":0.0025,"nx":19,"ny":19,"refTime":"2026-03-25T03:00:00:Z","depth":0,"parameterNumber":2,"parameterNumberName":"U-component_of_WINDS"},"data":[0,0,0,-1.0319,-1.0319,-1.0315,-1.0315,-1.0317,-1.0317,0,0,0,0,0,0,0,0,0,0,0,-1.0324,-1.0324,-1.0319,-1.0319,-1.0315,-1.0315,-1.0317,-1.0317,0,0,0,0,0,0,0,0,0,0,0,-1.0324,-1.0324,-1.0324,-1.0319,-1.0315,-1.0315,-1.0317,-1.0317,0,0,0,0,0,0,0,0,0,0,-1.032,-1.0328,-1.0324,-1.0324,-1.0319,-1.0315,-1.0315,-1.0317,-1.0317,-1.0321,0,-1.0325,0,-1.0321,-1.0317,-1.0317,0,0,0,-1.0316,-1.0328,-1.0323,-1.0324,-1.0319,-1.0315,-1.0316,-1.0317,-1.0317,-1.0321,-1.0325,-1.0325,-1.0321,-1.0317,-1.0317,-1.0348,-1.0348,0,0,-1.0317,-1.0325,-1.0323,-1.0324,-1.0324,-1.0316,-1.0316,-1.0317,-1.0322,-1.0325,-1.0325,-1.0321,-1.0317,-1.0318,-1.0347,-1.0348,0,0,0,-1.0319,-1.0325,-1.0321,-1.0324,-1.0323,-1.0316,-1.0316,-1.0322,-1.032,-1.0325,-1.0321,-1.0318,-1.0318,-1.0347,-1.0348,-1.0369,0,0,0,-1.0319,-1.0327,-1.0321,-1.0326,-1.0323,-1.0322,-1.0321,-1.032,-1.032,-1.0321,-1.0318,-1.0318,-1.0347,-1.0347,-1.0367,-1.0377,0,0,0,-1.0323,-1.0327,-1.0328,-1.0327,-1.0325,-1.0322,-1.032,-1.032,-1.0318,-1.0317,-1.0318,-1.0347,-1.0347,-1.0366,-1.0375,-1.0388,0,0,0,-1.0329,-1.0346,-1.0328,-1.0346,-1.0325,-1.0335,-1.032,-1.0327,-1.0329,-1.0318,-1.0347,-1.0347,-1.0366,-1.0374,-1.0386,-1.0399,-1.0406,0,0,-1.0355,-1.0349,-1.0359,-1.0343,-1.0358,-1.0335,-1.0353,-1.0347,-1.034,-1.0346,-1.0346,-1.0368,-1.0375,-1.0387,-1.0437,-1.0442,0,0,0,-1.037,-1.0377,-1.038,-1.0382,-1.0379,-1.0376,-1.0367,-1.0365,-1.037,-1.0345,-1.0375,-1.0379,-1.0386,-1.0392,-1.0396,-1.0402,-1.0351,-1.035,-1.035,-1.0419,-1.0408,-1.0424,-1.0414,-1.0416,-1.0407,-1.0409,-1.0404,-1.0393,-1.0401,-1.0402,-1.0434,-1.0441,-1.0444,-1.045,-1.0408,-1.0408,-1.0408,-1.0408,-1.0456,-1.0464,-1.0449,-1.0459,-1.0448,-1.0457,-1.0449,-1.0441,-1.0447,-1.0431,-1.0437,-1.0421,-1.045,-1.0454,-1.041,-1.041,-1.0409,-1.0409,-1.0409,-1.0486,-1.0489,-1.0486,-1.049,-1.0493,-1.0482,-1.0489,-1.0479,-1.047,-1.0475,-1.0476,-1.0476,-1.0474,-1.0476,-1.0477,-1.0477,-1.0477,-1.0477,-1.0477,-1.0519,-1.0515,-1.0522,-1.052,-1.0521,-1.0521,-1.0513,-1.0513,-1.0511,-1.0503,-1.0503,-1.0492,-1.0454,-1.0445,-1.0479,-1.0478,-1.0478,-1.0478,-1.0478,-1.0561,-1.055,-1.056,-1.0561,-1.0558,-1.0563,-1.0551,-1.0553,-1.0552,-1.0556,-1.0543,-1.0517,-1.0511,-1.0507,-1.05,-1.0545,-1.0545,-1.0545,-1.0545,-1.0586,-1.0582,-1.0591,-1.0593,-1.0594,-1.0584,-1.0597,-1.0591,-1.0583,-1.0582,-1.0574,-1.0563,-1.056,-1.0555,-1.0551,-1.0544,-1.0599,-1.0599,-1.0599,-1.0612,-1.0607,-1.062,-1.0612,-1.0609,-1.0607,-1.0619,-1.0623,-1.0611,-1.0601,-1.0581,-1.0579,-1.0561,-1.0556,-1.0545,-1.0538,-1.0525,0,0]},{"header":{"parameterUnit":"m.s-1","parameterCategory":1,"la1":30.2992,"la2":30.254,"lo1":-89.0895,"lo2":-89.0443,"dy":0.0025,"dx":0.0025,"nx":19,"ny":19,"refTime":"2026-03-25T03:00:00:Z","depth":0,"parameterNumber":3,"parameterNumberName":"V-component_of_WINDS"},"data":[0,0,0,3.1676,3.1675,3.1631,3.1631,3.1589,3.1589,0,0,0,0,0,0,0,0,0,0,0,3.17,3.17,3.1676,3.1675,3.1631,3.1631,3.1589,3.1589,0,0,0,0,0,0,0,0,0,0,0,3.17,3.17,3.17,3.1675,3.1631,3.1631,3.1589,3.1617,0,0,0,0,0,0,0,0,0,0,3.1657,3.1691,3.17,3.17,3.1675,3.1631,3.1631,3.1618,3.1615,3.1616,0,3.1622,0,3.1606,3.1588,3.1587,0,0,0,3.1666,3.1693,3.1671,3.17,3.1674,3.1631,3.1648,3.1616,3.1613,3.1613,3.1622,3.162,3.1605,3.1587,3.1587,3.1631,3.1631,0,0,3.1668,3.1697,3.1674,3.167,3.168,3.165,3.1647,3.1614,3.1625,3.1622,3.1618,3.1604,3.1587,3.1587,3.163,3.1631,0,0,0,3.1681,3.1699,3.1678,3.1672,3.1663,3.1649,3.1645,3.1626,3.1617,3.1618,3.1604,3.1587,3.1587,3.1629,3.163,3.1691,0,0,0,3.1682,3.1707,3.168,3.1697,3.1664,3.1645,3.1659,3.1619,3.1614,3.1604,3.1587,3.1587,3.1628,3.163,3.1687,3.1714,0,0,0,3.1699,3.1709,3.1707,3.1699,3.1681,3.1644,3.1633,3.1617,3.1606,3.1587,3.1587,3.1628,3.1629,3.1685,3.1709,3.1734,0,0,0,3.1724,3.1759,3.1708,3.1741,3.1682,3.1683,3.1633,3.1631,3.1623,3.1587,3.1629,3.163,3.1684,3.1706,3.1732,3.1761,3.1777,0,0,3.1784,3.1768,3.1785,3.1738,3.1756,3.1687,3.1713,3.1676,3.1646,3.1637,3.1637,3.1688,3.1709,3.1734,3.1851,3.1863,0,0,0,3.1814,3.1827,3.1825,3.182,3.1794,3.1773,3.173,3.1716,3.1707,3.1648,3.1703,3.1714,3.1728,3.1741,3.1751,3.1761,3.1637,3.1637,3.1637,3.1941,3.1903,3.1929,3.1887,3.1881,3.1837,3.1829,3.1802,3.1764,3.1777,3.1775,3.1851,3.1867,3.1874,3.1885,3.1787,3.1787,3.1787,3.1787,3.2026,3.2039,3.1989,3.1997,3.1956,3.1961,3.1919,3.1892,3.189,3.1849,3.1859,3.1818,3.1889,3.1896,3.1792,3.1791,3.179,3.179,3.179,3.2105,3.2105,3.2089,3.2077,3.2072,3.2026,3.2028,3.1989,3.1953,3.1963,3.1956,3.1955,3.1949,3.1963,3.1963,3.1963,3.1963,3.1964,3.1964,3.2194,3.2174,3.2181,3.2158,3.2149,3.2133,3.2089,3.2079,3.2058,3.203,3.2029,3.199,3.1904,3.1883,3.1968,3.1967,3.1966,3.1966,3.1966,3.2295,3.2266,3.2277,3.2269,3.2238,3.2236,3.2188,3.2171,3.2157,3.2158,3.2117,3.2059,3.2038,3.2029,3.2012,3.2125,3.2125,3.2125,3.2125,3.2362,3.2348,3.2351,3.2341,3.2326,3.2284,3.2296,3.2262,3.2222,3.2211,3.2188,3.2162,3.2155,3.2138,3.2127,3.211,3.2246,3.2246,3.2246,3.2422,3.2405,3.2424,3.2387,3.236,3.2338,3.2348,3.2336,3.2284,3.225,3.2201,3.2196,3.2153,3.214,3.2106,3.2089,3.2057,0,0]}]]